Location: Allonne
(49.4086°N, 2.1143°E)
Time: 16:20:24
(UTC+00:00)

Lacrosse 5 - Pass Details

Date: 03 February 2023
Orbit: 714 x 724 km, 57.0° (Epoch: 09 March)

Event Time Altitude Azimuth Distance (km) Brightness Sun altitude
Rises 18:25:40 0° 228° (SW) 3,126 6.1 -15.7°
Reaches altitude 10° 18:28:03 10° 227° (SW) 2,209 5.2 -16.1°
Maximum altitude 18:33:08 76° 142° (SE) 749 1.8 -16.9°
Enters shadow 18:35:50 28° 61° (ENE) 1,337 2.7 -17.3°
